User: anonymous   Login
Location: Bluff Heights
(33.7692°N, 118.1592°W)
Time: 21:09:29
(UTC+00:00)
Language:

First-Move - Orbit

View from above orbital plane
View from above orbital plane
View from above satellite
View from above satellite

Ground track
Ground track

The orbit data is extracted from the following two-line orbital elements,

1 39439U 13066Z   21262.42511583  .00000498  00000-0  65997-4 0  9997
2 39439  97.6066 243.6021 0063515 209.2643 150.5008 14.82756727421878
Epoch (UTC): 19 September 2021 10:12:10
Eccentricity: 0.0063515
inclination: 97.6066°
perigee height: 576 km
apogee height: 665 km
right ascension of ascending node: 243.6021°
argument of perigee: 209.2643°
revolutions per day: 14.82756727
mean anomaly at epoch: 150.5008°
orbit number at epoch: 42187

The dashed part of the orbit path shows where the satellite is in the earth's shadow,  

DLR